DELTA 1 DEB, 10661

Orbit data source: Space-Track

DELTA 1 DEB, 10661 is space debris in SSO originally from a launch on Thu, 29 Jul 1976 UTC launched from the Air Force Western Test Range (AFWTR). Debris objects in space refer to the collection of defunct objects orbiting the Earth. Examples of debris include non-operational satellites, rocket bodies, and fragments generated from explosions, collisions, or faulty payload assembly.

Loading next visibility...
Identifier
10661, 1976-077X
Orbit
SSO
Country
Flag of USUS
Related business
Manufacturer
Unknown
Mission
Spacecraft
Bus & Motor
Unknown
Mass
Unknown
Launch date (UTC)
1976-07-29 (50 years ago)
Launch vehicle
Unknown
Launch site
Air Force Western Test Range (AFWTR)
Object type
Payload
Rocket body
Debris
Shape & HBR
Unknown shape, 0.1 m
Radar Cross Section
Medium (>0.1 m² and <1 m²)

Expand to show TLE details & history
Last TLE update: 3 days ago

TLE from 3 days ago
0 DELTA 1 DEB
1 10661U 76077X   26252.93885895  .00002184  00000-0  41414-2 0  9994
2 10661 101.1759 236.0797 0106590 199.4025 220.3516 13.37357441346128
Epoch: 2026-09-09T22:31Z
TLE epoch observation values (Epoch: 2026-09-09T22:31:57.413Z)
Latitude
57.30612°
Longitude
-108.72719°
Altitude
1,189.875 km
Speed
7.234 km/s
True Right ascension
14h 32m 58s
True Declination
57° 09' 31"
Sunlit
Object was in daylight at epoch
Visualization orbit readout
Latitude
Unknown
Longitude
Unknown
Altitude
Unknown
Speed
Unknown
Apparent Right ascension
Unknown
Apparent Declination
Unknown
Sunlit
N/A
Visualization observer readout
Local Sidereal Time
16:33:02
Azimuth
Unknown
Elevation
Unknown
Doppler factor
Unknown
Orbital elements
Apogee altitude
1,196.424 km
Perigee altitude
1,036.652 km
Semi-major axis
7,494.675 km
Eccentricity
0.01066
Inclination
101.1759°
RAAN
236.0797°
Arg. of periapsis
199.4025°
True anomaly
219.56873°
Mean anomaly
220.3516°
Eccentric anomaly
219.95937°
Mean motion
3.34514 °/min
Orbital period
107.62 mins
BSTAR
0.0041414
Loading maneuver chart data...
Computing Atmospheric mass density...
Loading historical data...
Loading historical data...
Loading historical data...
Loading historical data...
Loading historical data...
Loading historical data...
Loading historical data...

Documentation

Showing up to 5 results
|